Weather History for Staunton, VA

Change the Weather History Date:

Tuesday, March 25, 2014

  Actual Average Record
Temperature  
Mean Temperature 26 °F -  
Max Temperature 32 °F 59 °F 78 °F (2003)
Min Temperature 19 °F 35 °F 19 °F (2014)
Degree Days  
Heating Degree Days 40    
Moisture  
Dew Point 21 °F    
Average Humidity 74    
Maximum Humidity 93    
Minimum Humidity 35    
Precipitation  
Precipitation 0.16 in - - ()
Sea Level Pressure  
Sea Level Pressure 29.95 in    
Wind  
Wind Speed 3 mph (NNE)    
Max Wind Speed 9 mph    
Max Gust Speed -    
Visibility 5 miles    
Events Fog , Rain , Snow    
Averages and records for this station are not official NWS values.
T = Trace of Precipitation, MM = Missing Value Source: NWS Daily Summary

Daily Weather History Graph

Daily Weather History Graph

Search for Another Location

Airport:

Trip Planner

Search our weather history database for the weather conditions in past years. The results will help you decide how hot, cold, wet, or windy it might be!

Date:

Astronomy

Mar. 25, 2014 Rise Set
Actual Time 7:11 AM EDT 7:32 PM EDT
Civil Twilight 6:44 AM EDT 7:58 PM EDT
Nautical Twilight 6:14 AM EDT 8:29 PM EDT
Astronomical Twilight 5:42 AM EDT 9:01 PM EDT
Moon 3:27 AM EDT (3/25) 2:05 PM EDT (3/25)
Length of Visible Light 13h 13m
Length of Day
12h 20m
Waning Crescent, 32% of the Moon is Illuminated
Mar 25
Waning Crescent
Mar 30
New
Apr 7
First Quarter
Apr 15
Full
Apr 22
Last Quarter

Hourly Weather History & Observations

Time (EDT) Temp. Windchill Dew Point Humidity Pressure Visibility Wind Dir Wind Speed Gust Speed Precip Events Conditions
12:15 AM 32.4 °F 29.1 °F 14.2 °F 47% 30.10 in 10.0 mi NNE 3.5 mph - N/A   Overcast
12:35 AM 32.9 °F 28.5 °F 10.6 °F 40% 30.09 in 10.0 mi ENE 4.6 mph - N/A   Overcast
12:55 AM 32.4 °F 26.9 °F 9.3 °F 38% 30.09 in 10.0 mi ENE 5.8 mph - N/A   Overcast
1:15 AM 32.2 °F 27.7 °F 9.7 °F 39% 30.08 in 10.0 mi East 4.6 mph - N/A   Overcast
1:35 AM 32.0 °F - 8.8 °F 38% 30.08 in 10.0 mi Calm Calm - N/A   Overcast
1:55 AM 32.2 °F - 11.3 °F 42% 30.07 in 10.0 mi Calm Calm - N/A   Overcast
2:15 AM 32.0 °F 27.5 °F 10.8 °F 41% 30.06 in 10.0 mi North 4.6 mph - N/A   Overcast
2:35 AM 32.4 °F 26.9 °F 7.5 °F 35% 30.06 in 10.0 mi North 5.8 mph - N/A   Overcast
2:55 AM 31.5 °F - 10.6 °F 42% 30.05 in 10.0 mi Calm Calm - N/A   Mostly Cloudy
3:15 AM 29.8 °F - 12.6 °F 49% 30.04 in 10.0 mi Calm Calm - N/A   Mostly Cloudy
3:35 AM 29.3 °F - 12.0 °F 49% 30.03 in 10.0 mi Calm Calm - N/A   Overcast
3:55 AM 28.6 °F - 12.9 °F 52% 30.02 in 10.0 mi Calm Calm - N/A   Overcast
4:15 AM 27.9 °F 24.0 °F 14.7 °F 58% 30.00 in 10.0 mi ENE 3.5 mph - N/A   Overcast
4:35 AM 29.3 °F 25.6 °F 12.9 °F 51% 30.00 in 10.0 mi NNE 3.5 mph - N/A   Overcast
4:55 AM 29.1 °F - 12.9 °F 51% 30.00 in 10.0 mi Calm Calm - N/A   Overcast
5:15 AM 29.7 °F - 12.2 °F 48% 30.00 in 10.0 mi Calm Calm - N/A   Overcast
5:35 AM 28.9 °F - 16.3 °F 59% 30.00 in 10.0 mi Calm Calm - N/A   Overcast
5:55 AM 29.1 °F - 14.5 °F 55% 30.00 in 10.0 mi Calm Calm - N/A   Overcast
6:15 AM 29.3 °F - 14.7 °F 55% 30.00 in 10.0 mi Calm Calm - N/A   Overcast
6:35 AM 29.3 °F - 14.9 °F 55% 29.98 in 10.0 mi Calm Calm - N/A   Overcast
6:55 AM 29.5 °F - 14.7 °F 54% 29.99 in 10.0 mi Calm Calm - N/A   Overcast
7:15 AM 30.0 °F - 14.0 °F 51% 29.98 in 10.0 mi Calm Calm - N/A   Overcast
7:35 AM 29.7 °F 26.1 °F 16.7 °F 59% 29.99 in 4.0 mi East 3.5 mph - N/A Snow Light Snow
7:55 AM 28.6 °F - 21.6 °F 75% 29.99 in 1.8 mi Calm Calm - N/A   Overcast
8:15 AM 27.5 °F - 22.8 °F 83% 30.00 in 1.2 mi Calm Calm - N/A   Overcast
8:35 AM 27.1 °F - 23.4 °F 86% 30.00 in 1.0 mi Calm Calm - N/A   Overcast
8:55 AM 27.3 °F - 24.3 °F 88% 30.00 in 0.5 mi Calm Calm - N/A Snow Snow
9:15 AM 27.1 °F - 24.4 °F 90% 30.00 in 0.5 mi Calm Calm - N/A Snow Snow
9:35 AM 27.3 °F - 24.6 °F 90% 29.99 in 0.5 mi Calm Calm - N/A Snow Snow
9:55 AM 27.3 °F 22.0 °F 24.6 °F 90% 29.99 in 0.5 mi NNE 4.6 mph - N/A Snow Snow
10:15 AM 27.3 °F 23.4 °F 24.6 °F 90% 29.98 in 0.8 mi North 3.5 mph - N/A Snow Light Snow
10:35 AM 27.9 °F 22.6 °F 24.8 °F 88% 29.97 in 0.8 mi North 4.6 mph - N/A Snow Light Snow
10:55 AM 28.0 °F 24.2 °F 24.8 °F 88% 29.97 in 0.8 mi North 3.5 mph - N/A Snow Light Snow
11:15 AM 28.2 °F 23.1 °F 25.0 °F 88% 29.96 in 0.8 mi North 4.6 mph - N/A Snow Light Snow
11:35 AM 28.4 °F 23.3 °F 25.0 °F 87% 29.96 in 0.8 mi North 4.6 mph - N/A Snow Light Snow
11:55 AM 28.8 °F 23.7 °F 25.2 °F 86% 29.95 in 1.0 mi North 4.6 mph - N/A Snow Light Snow
12:15 PM 28.8 °F - 25.3 °F 87% 29.94 in 0.5 mi Calm Calm - N/A Snow Snow
12:35 PM 29.1 °F 25.4 °F 25.7 °F 87% 29.93 in 0.5 mi North 3.5 mph - 0.04 in Snow Snow
12:55 PM 29.3 °F - 25.7 °F 86% 29.92 in 0.8 mi Calm Calm - 0.06 in Snow Light Snow
1:15 PM 29.3 °F - 25.5 °F 86% 29.91 in 1.2 mi Calm Calm - 0.02 in   Overcast
1:35 PM 29.5 °F - 25.7 °F 86% 29.91 in 1.5 mi Calm Calm - 0.04 in   Overcast
2:15 PM 30.2 °F 23.4 °F 26.4 °F 86% 29.88 in 2.0 mi NNE 6.9 mph - 0.02 in Rain Light Freezing Rain
2:35 PM 30.9 °F 24.3 °F 27.0 °F 85% 29.86 in 1.5 mi NNE 6.9 mph - 0.03 in Rain Light Freezing Rain
2:55 PM 30.7 °F 24.1 °F 26.6 °F 85% 29.86 in 2.0 mi NNE 6.9 mph - 0.04 in Rain Light Freezing Rain
3:15 PM 30.7 °F 23.3 °F 26.6 °F 85% 29.85 in 1.2 mi NE 8.1 mph - 0.01 in   Overcast
3:35 PM 30.9 °F 25.2 °F 27.1 °F 86% 29.84 in 1.2 mi NNE 5.8 mph - 0.01 in   Overcast
3:55 PM 30.7 °F 24.9 °F 27.3 °F 87% 29.83 in 1.2 mi NE 5.8 mph - 0.02 in Rain Light Freezing Rain
4:15 PM 30.9 °F 25.2 °F 27.3 °F 86% 29.83 in 2.5 mi NNE 5.8 mph - N/A Rain Light Freezing Rain
4:35 PM 31.6 °F 23.7 °F 27.1 °F 83% 29.83 in 3.0 mi NNE 9.2 mph - N/A   Light Freezing Rain
4:55 PM 31.8 °F 23.9 °F 26.8 °F 82% 29.83 in 5.0 mi NNE 9.2 mph - N/A   Haze
5:15 PM 31.8 °F 25.4 °F 26.6 °F 81% 29.83 in 10.0 mi NNE 6.9 mph - N/A   Overcast
5:35 PM 31.8 °F 24.6 °F 26.6 °F 81% 29.84 in 10.0 mi NNE 8.1 mph - N/A   Overcast
5:55 PM 32.0 °F 24.8 °F 26.2 °F 79% 29.84 in 10.0 mi NNE 8.1 mph - N/A   Overcast
6:15 PM 31.6 °F 24.4 °F 26.2 °F 80% 29.84 in 10.0 mi NNE 8.1 mph - N/A   Overcast
6:35 PM 31.5 °F 25.8 °F 26.2 °F 81% 29.86 in 10.0 mi NNE 5.8 mph - N/A   Overcast
6:55 PM 31.3 °F 24.7 °F 26.1 °F 81% 29.86 in 4.0 mi North 6.9 mph - N/A Snow Light Snow
7:15 PM 30.9 °F 25.2 °F 25.9 °F 82% 29.86 in 2.5 mi North 5.8 mph - N/A Snow Light Snow
7:35 PM 30.0 °F 26.5 °F 25.7 °F 84% 29.86 in 5.0 mi North 3.5 mph - N/A Snow Light Snow
7:55 PM 28.9 °F - 25.7 °F 88% 29.87 in 10.0 mi Calm Calm - N/A   Mostly Cloudy
8:15 PM 27.1 °F - 24.4 °F 90% 29.88 in 7.0 mi Calm Calm - N/A   Scattered Clouds
8:35 PM 26.4 °F - 24.1 °F 91% 29.88 in 5.0 mi Calm Calm - N/A   Scattered Clouds
8:55 PM 26.2 °F - 24.1 °F 92% 29.89 in 1.0 mi Calm Calm - N/A   Mostly Cloudy
9:15 PM 25.7 °F - 23.9 °F 93% 29.90 in 1.5 mi Calm Calm - N/A   Scattered Clouds
9:35 PM 23.9 °F - 21.9 °F 92% 29.90 in 0.2 mi Calm Calm - N/A Fog Light Freezing Fog
9:55 PM 23.0 °F - 21.0 °F 92% 29.90 in 0.2 mi Calm Calm - N/A Fog Light Freezing Fog
10:15 PM 21.0 °F - 19.0 °F 92% 29.91 in 0.5 mi Calm Calm - N/A Fog Light Freezing Fog
10:35 PM 23.2 °F - 21.4 °F 93% 29.91 in 1.5 mi Calm Calm - N/A   Mist
10:55 PM 22.8 °F - 20.8 °F 92% 29.91 in 0.8 mi Calm Calm - N/A   Mostly Cloudy
11:15 PM 19.6 °F - 17.4 °F 91% 29.91 in 0.2 mi Calm Calm - N/A Fog Light Freezing Fog
11:35 PM 19.0 °F - 16.7 °F 91% 29.91 in 0.2 mi Calm Calm - N/A Fog Light Freezing Fog
11:55 PM 19.2 °F - 16.9 °F 91% 29.92 in 0.5 mi Calm Calm - N/A Fog Light Freezing Fog